Skip to main content.
NOAA NWS Hourly Roundups by Site

NOAA NWS Hourly Roundups by Site

Regional Weather Roundup for Omaha, NE

To Select Another Site Choose from List

Select Site:  

000
ASUS43 KOAX 300013
RWRNE

WEATHER ROUNDUP FOR NEBRASKA
NATIONAL WEATHER SERVICE OMAHA NE
700 PM CDT MON MAY 29 2023

NOTES: SATELLITE DATA IS BEING USED TO AUGMENT CLOUD COVER ABOVE
       12000 FEET.
       "FAIR" INDICATES FEW OR NO CLOUDS BELOW 12,000 FEET WITH NO
       SIGNIFICANT WEATHER AND/OR OBSTRUCTIONS TO VISIBILITY.


NEZ001>004-019>022-054>056-300100-
NEBRASKA PANHANDLE

CITY           SKY/WX    TMP DP  RH WIND       PRES   REMARKS
SCOTTSBLUFF    PTSUNNY   72  53  51 E10       29.91F
6HR MIN TEMP:  64; 6HR MAX TEMP:  84; 6HR PCP:  0.02;

ALLIANCE       LGT RAIN  61  52  72 S13G26    29.89F
6HR MIN TEMP:  60; 6HR MAX TEMP:  84; 6HR PCP:  0.01;

CHADRON        PTSUNNY   79  49  34 W9        29.82R
6HR MIN TEMP:  77; 6HR MAX TEMP:  83;

GORDON         PTSUNNY   80  46  30 W9        29.82S
6HR MIN TEMP:  76; 6HR MAX TEMP:  81;

KIMBALL        PTSUNNY   65  51  59 NE3       29.93F
SIDNEY         CLOUDY    62  52  69 N10       29.88F
6HR MIN TEMP:  61; 6HR MAX TEMP:  79; 6HR PCP:  0.03;

$$

NEZ057>060-069>072-079>082-300100-
SOUTHWEST NEBRASKA

CITY           SKY/WX    TMP DP  RH WIND       PRES   REMARKS
NORTH PLATTE   CLOUDY    77  55  46 VRB5G24   29.80F
6HR MIN TEMP:  77; 6HR MAX TEMP:  84;

GRANT          FAIR      77  55  47 S15G22    29.82F
IMPERIAL       CLOUDY    71  54  54 SE16      29.82F
6HR MIN TEMP:  68; 6HR MAX TEMP:  80; 6HR PCP:  0.14;

LEXINGTON      PTSUNNY   82  53  37 S12       29.83R
MCCOOK         PTSUNNY   78  56  46 S6        29.82F
6HR MIN TEMP:  78; 6HR MAX TEMP:  84;

OGALLALA       CLOUDY    69  61  76 NE13      29.83F
$$

NEZ005>010-023>029-035>040-094-300100-
NORTH CENTRAL NEBRASKA

CITY           SKY/WX    TMP DP  RH WIND       PRES   REMARKS
VALENTINE      PTSUNNY   85  51  31 NW9       29.76S
6HR MIN TEMP:  77; 6HR MAX TEMP:  87;

AINSWORTH      CLOUDY    71  58  61 S8        29.78F
BROKEN BOW     CLOUDY    82  54  37 S9        29.81S
6HR MIN TEMP:  79; 6HR MAX TEMP:  87;

O`NEILL        LGT RAIN  78  57  47 S8        29.79F
ORD            PTSUNNY   83  58  42 S10       29.79R
6HR MIN TEMP:  78; 6HR MAX TEMP:  87;

THEDFORD       TSTM      60  54  81 SE20G25   29.87R
$$

NEZ041-046>049-061>064-073>077-083>087-300100-
SOUTH CENTRAL NEBRASKA

CITY           SKY/WX    TMP DP  RH WIND       PRES   REMARKS
GRAND ISLAND   SUNNY     88  53  30 S13G22    29.82S
6HR MIN TEMP:  83; 6HR MAX TEMP:  90;

AURORA         SUNNY     87  55  33 S14       29.82S
HASTINGS       SUNNY     86  56  35 S14G25    29.83F
6HR MIN TEMP:  81; 6HR MAX TEMP:  88;

HEBRON         SUNNY     88  55  33 S13       29.82F
HOLDREGE       SUNNY     83  56  38 S16G22    29.83S
KEARNEY        SUNNY     84  56  38 S15       29.84R
YORK           SUNNY     84  54  34 S12G21    29.81F
$$

NEZ011>018-030>034-042>045-300100-
NORTHEAST NEBRASKA

CITY           SKY/WX    TMP DP  RH WIND       PRES   REMARKS
NORFOLK          N/A     87  54  32 S13G23    29.78F
6HR MIN TEMP:  84; 6HR MAX TEMP:  91;

ALBION         MOSUNNY   83  54  37 SW9       29.80S
BLAIR          SUNNY     86  56  35 S15       29.83F
COLUMBUS       SUNNY     87  56  34 S12G23    29.81S
FREMONT        MOSUNNY   87  58  37 S14G20    29.82S
TEKAMAH        SUNNY     88  56  33 S22G29    29.80F
6HR MIN TEMP:  85; 6HR MAX TEMP:  92;

WAYNE          MOSUNNY   87  55  33 S16G23    29.78S
$$

NEZ050>053-065>068-078-088>093-300100-
SOUTHEAST NEBRASKA

CITY           SKY/WX    TMP DP  RH WIND       PRES   REMARKS
LINCOLN        SUNNY     88  58  36 S14       29.82F
6HR MIN TEMP:  86; 6HR MAX TEMP:  91;

OMAHA EPPLEY   MOSUNNY   86  58  38 S18       29.83F
6HR MIN TEMP:  81; 6HR MAX TEMP:  88;

BEATRICE       SUNNY     85  60  41 S13G18    29.84F
FALLS CITY     SUNNY     83  59  44 SE13      29.86F
6HR MIN TEMP:  82; 6HR MAX TEMP:  87;

NEBRASKA CITY  MOSUNNY   84  56  38 S14       29.86F
PLATTSMOUTH    SUNNY     84  57  40 SE12G20   29.84F
$$

NEZ044-045-051>053-067-300100-
OMAHA AREA

CITY           SKY/WX    TMP DP  RH WIND       PRES   REMARKS
OMAHA EPPLEY   MOSUNNY   86  58  38 S18       29.83F
6HR MIN TEMP:  81; 6HR MAX TEMP:  88;

BLAIR          SUNNY     86  56  35 S15       29.83F
FREMONT        MOSUNNY   87  58  37 S14G20    29.82S
MILLARD        SUNNY     86  56  36 S17       29.83S
OFFUTT AFB     SUNNY     86  55  34 SE18      29.85F
PLATTSMOUTH    SUNNY     84  57  40 SE12G20   29.84F
WAHOO            N/A     85  55  36 S13G18    29.82F
$$


 

View Past Reports for Omaha, NE.

Products Courtesy of NOAA-NWS
NWS Information Parsing Script by Ken True at Saratoga Weather - Script by SE Lincoln Weather.